Zurück zum Katalog

KUIPER-00031

AktivKommunikationLEO
NORAD 63744·PAYLOAD·🇺🇸 United States

Gestartet Apr 28, 2025 von Cape Canaveral Space Force Station

Loading…

Nächste Überflüge (nächste 24 Stunden)

TLE

AktuellSource: CelesTrak SupGP

Epoche: Sep 14, 2026, 23:42 UTC

1 63744C 25088W   26257.98789352 -.00001640  00000+0 -21468-3 0  2573
2 63744  51.9016 338.5113 0000313  93.1018 307.3912 14.79924896    16

Verfolge KUIPER-00031 in Echtzeit mit AllMySat

Download on the App Store